Regional Weather Roundup
Issued by NWS

Home | Current Version | Previous Version | Graphics & Text | Print | Product List | Glossary On
Versions: 1 2 3 4 5 6 7 8 9 10 11 12 13 14 15 16 17 18 19 20 21 22 23 24 25 26 27 28 29 30 31 32 33 34 35 36 37 38 39 40 41 42 43 44 45 46 47 48 49 50
000
ASUS43 KDMX 162206
RWRIA

WEATHER ROUNDUP FOR IOWA
NATIONAL WEATHER SERVICE DES MOINES IA
400 PM CST MON JAN 16 2017

NOTE: "FAIR" INDICATES FEW OR NO CLOUDS BELOW 12,000 FEET WITH NO
SIGNIFICANT WEATHER AND/OR OBSTRUCTIONS TO VISIBILITY.

* - THESE STATIONS ARE NOT NWS STATIONS...THUS NOT UNDER NWS
QUALITY CONTROL.  THEY ALSO DO NOT REPORT WEATHER SUCH
AS PRECIPITATION OR FOG.

IAZ001>003-012>014-020>022-031>034-043>046-162300-
   NORTHWEST IOWA

CITY           SKY/WX    TMP DP  RH WIND       PRES   REMARKS
CARROLL *      CLOUDY    34  34 100 NE9       29.90S FOG     WCI  26
CHEROKEE *     MIX PCPN  32  32 100 N6        29.94S WCI  26
DENISON *      CLOUDY    32  32 100 NE7       29.88S FOG     WCI  26
LE MARS *      LGT RAIN  32  32 100 NE10      29.96S WCI  24
ORANGE CITY *  MIX PCPN  30  30 100 NE6       29.94F WCI  24
SHELDON *      LGT RAIN  32  32 100 NE12      29.93F WCI  23
SIOUX CITY     LGT RAIN  34  31  88 N10       29.95R WCI  26
SPENCER        FRZ RAIN  32  30  92 NE15      29.95S WCI  22
STORM LAKE *   LGT RAIN  32  32 100 NE13      29.92R WCI  22
$$

IAZ055>058-069>071-079>083-090>094-162300-
   SOUTHWEST IOWA

CITY           SKY/WX    TMP DP  RH WIND       PRES   REMARKS
ATLANTIC *     LGT RAIN  34  34 100 NE8       29.88S WCI  27
AUDUBON *      MIX PCPN  32  30  93 NE3       29.90R
CLARINDA *     FOG       36  36 100 NE6       29.87R VSB<1/4 WCI  31
COUNCIL BLFS * CLOUDY    34  34 100 N9        29.88R FOG     WCI  26
CRESTON *      FOG       32  32 100 NE8       29.86S VSB<1/4 WCI  25
HARLAN  *      CLOUDY    32  32 100 NE9       29.92S FOG     WCI  24
LAMONI         FOG       37  37 100 E5        29.84S VSB 1/4 WCI  33
RED OAK *      FOG       36  34  93 N8        29.87R VSB 1   WCI  29
SHENANDOAH *   FOG       36  36 100 N8        29.87S VSB 1   WCI  29
$$

IAZ047>049-059>061-072>074-084-162300-
   CENTRAL IOWA

CITY           SKY/WX    TMP DP  RH WIND       PRES   REMARKS
AMES           FOG       33  33 100 NE5       29.90S VSB 1   WCI  29
ANKENY *       LGT RAIN  32  32 100 NE3       29.90F VSB 1/2
BOONE *        FOG       32  32 100 MISG      29.89S VSB 3/4
CHARITON *     SNOW      34  34 100 E3        29.86S VSB<1/4
DES MOINES     DRZL/FOG  34  33  96 NE5       29.89S VSB 3/4 WCI  30
GRINNELL*      FOG       33  32  98 E5        29.89F VSB 1   WCI  28
KNOXVILLE *    LGT RAIN  34  34 100 E3        29.86F VSB<1/4
MARSHALLTOWN   CLOUDY    33  33 100 E8        29.90S FOG     WCI  26
NEWTON *       FOG       34  32  93 E8        29.88F VSB 1/2 WCI  27
PELLA *        FOG       35  34  97 SE6       29.89F VSB 1/2 WCI  30
PERRY *        CLOUDY    33  33 100 NE3       29.90R FOG
$$

IAZ004>006-015-016-023>025-035-036-162300-
   NORTH CENTRAL IOWA

CITY           SKY/WX    TMP DP  RH WIND       PRES   REMARKS
ALGONA *       FOG       32  32 100 NE12      29.94F VSB 3/4 WCI  23
CLARION *      CLOUDY    32  32 100 NE12      29.91F WCI  23
ESTHERVILLE    FRZ RAIN  30  30 100 NE13      29.95F FOG     WCI  20
FORT DODGE *   CLOUDY    32  30  93 CALM      29.93S
MASON CITY     CLOUDY    32  30  92 NE13      29.95F FOG     WCI  22
FOREST CITY *  DRIZZLE   32  32 100 NE8       29.94F WCI  25
WEBSTER CITY * LGT RAIN  34  34 100 NE8       29.89S WCI  27
IOWA FALLS *   RAIN      33  32  95 E6        29.92F WCI  28
$$

IAZ007>011-017>019-026>030-037>042-050>054-066-162300-
   NORTHEAST IOWA

CITY           SKY/WX    TMP DP  RH WIND       PRES   REMARKS
CEDAR RAPIDS   CLOUDY    34  33  96 E9        29.91F WCI  27
CHARLES CITY * LGT RAIN  34  34 100 MISG      29.96S
CLINTON *      LGT RAIN  35  35 100 E14       29.95F FOG     WCI  26
DECORAH *      LGT RAIN  32  32 100 E9        29.96F WCI  24
DUBUQUE        LGT RAIN  33  32  96 E9        29.95F FOG     WCI  25
MONTICELLO *   LGT RAIN  34  34 100 E9        29.94S WCI  26
OELWEIN *      LGT RAIN  34  34 100 E10       29.93F WCI  26
WATERLOO       CLOUDY    33  32  96 E7        29.94S FOG     WCI  27
$$

IAZ064-065-067-068-078-162300-
   EAST CENTRAL IOWA

CITY           SKY/WX    TMP DP  RH WIND       PRES   REMARKS
DAVENPORT      RAIN      36  35  96 E12       29.95S FOG     WCI  28
IOWA CITY      LGT RAIN  37  36  96 E6        29.94F FOG     WCI  32
MUSCATINE *    CLOUDY    37  37 100 VRB6      29.94F FOG     WCI  33
QUAD CITIES    LGT RAIN  36  35  96 E8        29.96R FOG     WCI  30
$$

IAZ062-063-075>077-085>089-095>099-162300-
   SOUTHEAST IOWA

CITY           SKY/WX    TMP DP  RH WIND       PRES   REMARKS
BURLINGTON     CLOUDY    38  38 100 SE6       29.92S FOG     WCI  33
FAIRFIELD *    FOG       37  37 100 SE8       29.90S VSB 1/4 WCI  31
FORT MADISON * FOG       39  37  93 SE6       29.93S VSB 1/2 WCI  35
KEOKUK *       FOG       39  39 100 E7        29.90F VSB 1/4 WCI  34
OSKALOOSA *    FOG       35  35  99 SE7       29.89F VSB 1/2 WCI  29
CENTERVILLE *  LGT RAIN  37  36  93 CALM      29.88S VSB 1/4
OTTUMWA        FOG       37  36  96 SE8       29.88F VSB 1/4 WCI  31
WASHINGTON *   CLOUDY    36  36 100 SE9       29.93S FOG     WCI  29
$$

ABBREVIATIONS USED IN REMARKS
   TC - TEMPERATURES IN CELSIUS
  WCI - WIND CHILL INDEX
   HX - HEAT INDEX
  VSB - VISIBILITY
$$





USA.gov is the U.S. government's official web portal to all federal, state and local government web resources and services.